Private Wetterstation Wechselburg
Wetterdaten: Freitag, 18.12.2020
Datum Zeit Temp. +2m Bodentemp. Temp.+5cm Temp. Wind Windchill X Diff Temp. Feuchte +2m Feuchte +5cm Luftdruck Regen Wind Richtung Richtung Sonnenschein Taupunkt Windchill Windben
18.12.2020 00:00 4,0 C 6,8 C 2,7 C 3,7 C 3,2 C 0,0 C 88 % 92 % 1027,1 hPa 0,0 l/m 1,3 km/h (1 Bft) S 180 0 min 2,2 C 3,2 C 0,0 km/h (0 Bft)
18.12.2020 00:05 3,9 C 6,8 C 2,8 C 3,6 C 3,1 C 0,0 C 87 % 92 % 1027,1 hPa 0,0 l/m 0,5 km/h (0 Bft) S 180 0 min 1,9 C 3,1 C 2,1 km/h (1 Bft)
18.12.2020 00:10 3,9 C 6,8 C 2,8 C 3,6 C 3,1 C 0,0 C 88 % 92 % 1026,6 hPa 0,0 l/m 1,1 km/h (1 Bft) S-SO 157 0 min 2,1 C 3,1 C 2,6 km/h (1 Bft)
18.12.2020 00:15 3,9 C 6,8 C 2,9 C 3,6 C 3,1 C 0,0 C 88 % 92 % 1026,6 hPa 0,0 l/m 1,1 km/h (1 Bft) SO 135 0 min 2,1 C 3,1 C 7,6 km/h (2 Bft)
18.12.2020 00:20 3,9 C 6,8 C 2,8 C 3,6 C 3,0 C 0,0 C 88 % 92 % 1026,6 hPa 0,0 l/m 0,5 km/h (0 Bft) S-SW 202 0 min 2,1 C 3,0 C 0,0 km/h (0 Bft)
18.12.2020 00:25 3,7 C 6,8 C 2,3 C 3,3 C 2,6 C 0,0 C 88 % 92 % 1026,6 hPa 0,0 l/m 0,2 km/h (0 Bft) SO 135 0 min 1,9 C 2,6 C 1,6 km/h (1 Bft)
18.12.2020 00:30 3,7 C 6,8 C 2,2 C 3,3 C 2,6 C 0,0 C 87 % 92 % 1026,8 hPa 0,0 l/m 0,2 km/h (0 Bft) SO 135 0 min 1,7 C 2,6 C 0,0 km/h (0 Bft)
18.12.2020 00:35 3,7 C 6,8 C 1,9 C 3,3 C 2,5 C 0,0 C 88 % 92 % 1026,8 hPa 0,0 l/m 0,0 km/h (0 Bft) SO 135 0 min 1,9 C 2,5 C 0,0 km/h (0 Bft)
18.12.2020 00:40 3,5 C 6,8 C 1,7 C 3,2 C 2,5 C 0,0 C 87 % 92 % 1026,8 hPa 0,0 l/m 0,0 km/h (0 Bft) SO 135 0 min 1,5 C 2,5 C 0,0 km/h (0 Bft)
18.12.2020 00:45 3,5 C 6,8 C 1,6 C 3,1 C 2,4 C 0,0 C 87 % 92 % 1026,8 hPa 0,0 l/m 0,2 km/h (0 Bft) O-SO 112 0 min 1,5 C 2,4 C 0,0 km/h (0 Bft)
18.12.2020 00:50 3,5 C 6,8 C 1,6 C 3,1 C 2,4 C 0,0 C 87 % 92 % 1026,8 hPa 0,0 l/m 0,2 km/h (0 Bft) SO 135 0 min 1,5 C 2,4 C 0,0 km/h (0 Bft)
18.12.2020 00:55 3,5 C 6,8 C 1,6 C 3,1 C 2,3 C 0,0 C 87 % 92 % 1026,8 hPa 0,0 l/m 0,0 km/h (0 Bft) S-SW 202 0 min 1,5 C 2,3 C 0,0 km/h (0 Bft)
18.12.2020 01:00 3,4 C 6,8 C 1,6 C 3,1 C 2,4 C 0,0 C 87 % 92 % 1026,8 hPa 0,0 l/m 0,2 km/h (0 Bft) SO 135 0 min 1,4 C 2,4 C 0,0 km/h (0 Bft)
18.12.2020 01:05 3,3 C 6,8 C 1,5 C 3,0 C 2,4 C 0,0 C 87 % 92 % 1026,8 hPa 0,0 l/m 0,2 km/h (0 Bft) O-SO 112 0 min 1,3 C 2,4 C 0,0 km/h (0 Bft)
18.12.2020 01:10 3,2 C 6,8 C 1,5 C 2,9 C 2,4 C 0,0 C 87 % 92 % 1026,7 hPa 0,0 l/m 0,0 km/h (0 Bft) O-SO 112 0 min 1,2 C 2,4 C 0,0 km/h (0 Bft)
18.12.2020 01:15 3,2 C 6,8 C 1,4 C 2,9 C 2,4 C 0,0 C 87 % 92 % 1026,7 hPa 0,0 l/m 0,0 km/h (0 Bft) O-SO 112 0 min 1,2 C 2,4 C 0,0 km/h (0 Bft)
18.12.2020 01:20 3,2 C 6,8 C 1,3 C 2,9 C 2,3 C 0,0 C 87 % 92 % 1026,7 hPa 0,0 l/m 0,0 km/h (0 Bft) O-SO 112 0 min 1,2 C 2,3 C 0,0 km/h (0 Bft)
18.12.2020 01:25 3,2 C 6,8 C 1,2 C 2,9 C 2,2 C 0,0 C 87 % 92 % 1026,7 hPa 0,0 l/m 0,0 km/h (0 Bft) O-SO 112 0 min 1,2 C 2,2 C 0,0 km/h (0 Bft)
18.12.2020 01:30 3,1 C 6,8 C 1,2 C 2,8 C 2,1 C 0,0 C 88 % 92 % 1026,9 hPa 0,0 l/m 0,0 km/h (0 Bft) O-SO 112 0 min 1,3 C 2,1 C 0,0 km/h (0 Bft)
18.12.2020 01:35 3,0 C 6,8 C 1,1 C 2,7 C 2,0 C 0,0 C 87 % 92 % 1026,9 hPa 0,0 l/m 0,0 km/h (0 Bft) O-SO 112 0 min 1,1 C 2,0 C 0,0 km/h (0 Bft)
18.12.2020 01:40 3,1 C 6,8 C 1,0 C 2,8 C 2,1 C 0,0 C 88 % 92 % 1026,9 hPa 0,0 l/m 0,0 km/h (0 Bft) O-SO 112 0 min 1,3 C 2,1 C 0,0 km/h (0 Bft)
18.12.2020 01:45 2,9 C 6,8 C 1,0 C 2,6 C 2,0 C 0,0 C 88 % 92 % 1026,9 hPa 0,0 l/m 0,0 km/h (0 Bft) SO 135 0 min 1,1 C 2,0 C 0,0 km/h (0 Bft)
18.12.2020 01:50 2,8 C 6,8 C 1,0 C 2,5 C 2,0 C 0,0 C 88 % 92 % 1027,0 hPa 0,0 l/m 0,0 km/h (0 Bft) SO 135 0 min 1,0 C 2,0 C 0,0 km/h (0 Bft)
18.12.2020 01:55 2,9 C 6,8 C 0,8 C 2,6 C 2,0 C 0,0 C 88 % 92 % 1027,0 hPa 0,0 l/m 0,0 km/h (0 Bft) SO 135 0 min 1,1 C 2,0 C 0,0 km/h (0 Bft)
18.12.2020 02:00 2,9 C 6,8 C 0,7 C 2,6 C 1,9 C 0,0 C 88 % 92 % 1027,0 hPa 0,0 l/m 0,0 km/h (0 Bft) SO 135 0 min 1,1 C 1,9 C 0,0 km/h (0 Bft)
18.12.2020 02:05 2,8 C 6,8 C 0,7 C 2,5 C 1,8 C 0,0 C 88 % 92 % 1027,0 hPa 0,0 l/m 0,0 km/h (0 Bft) SO 135 0 min 1,0 C 1,8 C 0,0 km/h (0 Bft)
18.12.2020 02:10 2,7 C 6,7 C 0,9 C 2,4 C 1,7 C 0,0 C 88 % 92 % 1026,9 hPa 0,0 l/m 0,0 km/h (0 Bft) O-SO 112 0 min 0,9 C 1,7 C 0,0 km/h (0 Bft)
18.12.2020 02:15 2,6 C 6,7 C 0,9 C 2,3 C 1,7 C 0,0 C 88 % 93 % 1026,9 hPa 0,0 l/m 0,0 km/h (0 Bft) O-SO 112 0 min 0,8 C 1,7 C 0,0 km/h (0 Bft)
18.12.2020 02:20 2,7 C 6,7 C 0,8 C 2,4 C 1,7 C 0,0 C 88 % 93 % 1026,9 hPa 0,0 l/m 0,0 km/h (0 Bft) O-SO 112 0 min 0,9 C 1,7 C 0,0 km/h (0 Bft)
18.12.2020 02:25 2,5 C 6,7 C 0,9 C 2,2 C 1,7 C 0,0 C 88 % 93 % 1026,9 hPa 0,0 l/m 0,0 km/h (0 Bft) S 180 0 min 0,7 C 1,7 C 0,0 km/h (0 Bft)
18.12.2020 02:30 2,5 C 6,7 C 0,9 C 2,2 C 1,7 C 0,0 C 88 % 93 % 1027,2 hPa 0,0 l/m 0,0 km/h (0 Bft) S-SO 157 0 min 0,7 C 1,7 C 0,0 km/h (0 Bft)
18.12.2020 02:35 2,5 C 6,7 C 1,2 C 2,3 C 2,0 C 0,0 C 88 % 93 % 1027,2 hPa 0,0 l/m 1,1 km/h (1 Bft) SO 135 0 min 0,7 C 2,0 C 0,0 km/h (0 Bft)
18.12.2020 02:40 2,7 C 6,7 C 1,2 C 2,5 C 2,1 C 0,0 C 88 % 93 % 1027,2 hPa 0,0 l/m 1,1 km/h (1 Bft) S 180 0 min 0,9 C 2,1 C 0,0 km/h (0 Bft)
18.12.2020 02:45 2,5 C 6,7 C 0,9 C 2,3 C 1,9 C 0,0 C 88 % 93 % 1027,2 hPa 0,0 l/m 0,2 km/h (0 Bft) SO 135 0 min 0,7 C 1,9 C 0,0 km/h (0 Bft)
18.12.2020 02:50 2,4 C 6,7 C 0,9 C 2,2 C 1,7 C 0,0 C 88 % 93 % 1027,3 hPa 0,0 l/m 0,3 km/h (0 Bft) SO 135 0 min 0,6 C 1,7 C 2,9 km/h (1 Bft)
18.12.2020 02:55 2,5 C 6,7 C 0,9 C 2,3 C 1,8 C 0,0 C 88 % 93 % 1027,3 hPa 0,0 l/m 0,5 km/h (0 Bft) S-SO 157 0 min 0,7 C 1,8 C 0,0 km/h (0 Bft)
18.12.2020 03:00 2,4 C 6,7 C 1,0 C 2,2 C 1,7 C 0,0 C 88 % 93 % 1027,3 hPa 0,0 l/m 0,5 km/h (0 Bft) S-SO 157 0 min 0,6 C 1,7 C 0,0 km/h (0 Bft)
18.12.2020 03:05 2,3 C 6,7 C 0,8 C 2,1 C 1,6 C 0,0 C 88 % 93 % 1027,3 hPa 0,0 l/m 0,5 km/h (0 Bft) S-SW 202 0 min 0,5 C 1,6 C 2,1 km/h (1 Bft)
18.12.2020 03:10 2,3 C 6,7 C 0,8 C 2,1 C 1,6 C 0,0 C 88 % 93 % 1027,2 hPa 0,0 l/m 0,5 km/h (0 Bft) S-SW 202 0 min 0,5 C 1,6 C 0,0 km/h (0 Bft)
18.12.2020 03:15 2,2 C 6,7 C 0,8 C 1,9 C 1,4 C 0,0 C 88 % 93 % 1027,2 hPa 0,0 l/m 0,3 km/h (0 Bft) S 180 0 min 0,4 C 1,4 C 1,8 km/h (1 Bft)
18.12.2020 03:20 2,1 C 6,7 C 0,9 C 1,9 C 1,5 C 0,0 C 88 % 93 % 1027,2 hPa 0,0 l/m 0,5 km/h (0 Bft) S-SO 157 0 min 0,3 C 1,5 C 3,1 km/h (1 Bft)
18.12.2020 03:25 2,3 C 6,7 C 1,1 C 2,1 C 1,7 C 0,0 C 88 % 93 % 1027,2 hPa 0,0 l/m 0,8 km/h (0 Bft) SO 135 0 min 0,5 C 1,7 C 2,4 km/h (1 Bft)
18.12.2020 03:30 2,2 C 6,6 C 1,0 C 2,0 C 1,7 C 0,0 C 88 % 93 % 1027,1 hPa 0,0 l/m 0,8 km/h (0 Bft) O-NO 67 0 min 0,4 C 1,7 C 0,0 km/h (0 Bft)
18.12.2020 03:35 2,1 C 6,6 C 1,0 C 1,9 C 1,6 C 0,0 C 88 % 93 % 1027,1 hPa 0,0 l/m 0,6 km/h (0 Bft) S-SO 157 0 min 0,3 C 1,6 C 0,0 km/h (0 Bft)
18.12.2020 03:40 2,1 C 6,6 C 1,1 C 2,0 C 1,8 C 0,0 C 88 % 93 % 1027,1 hPa 0,0 l/m 1,1 km/h (1 Bft) SO 135 0 min 0,3 C 1,8 C 0,0 km/h (0 Bft)
18.12.2020 03:45 2,1 C 6,6 C 1,1 C 2,0 C 1,8 C 0,0 C 88 % 93 % 1027,1 hPa 0,0 l/m 1,4 km/h (1 Bft) S 180 0 min 0,3 C 1,8 C 3,1 km/h (1 Bft)
18.12.2020 03:50 2,3 C 6,6 C 1,3 C 2,2 C 1,9 C 0,0 C 88 % 93 % 1026,9 hPa 0,0 l/m 1,6 km/h (1 Bft) SO 135 0 min 0,5 C 1,9 C 3,4 km/h (1 Bft)
18.12.2020 03:55 2,3 C 6,6 C 1,3 C 2,2 C 2,0 C 0,0 C 88 % 93 % 1026,9 hPa 0,0 l/m 1,8 km/h (1 Bft) SO 135 0 min 0,5 C 2,0 C 0,0 km/h (0 Bft)
18.12.2020 04:00 2,3 C 6,6 C 1,1 C 2,2 C 2,0 C 0,0 C 88 % 93 % 1026,9 hPa 0,0 l/m 1,0 km/h (0 Bft) S 180 0 min 0,5 C 2,0 C 2,1 km/h (1 Bft)
18.12.2020 04:05 2,2 C 6,6 C 1,1 C 2,1 C 1,9 C 0,0 C 88 % 93 % 1026,9 hPa 0,0 l/m 0,5 km/h (0 Bft) S-SO 157 0 min 0,4 C 1,9 C 0,0 km/h (0 Bft)
18.12.2020 04:10 2,1 C 6,6 C 1,0 C 2,0 C 1,8 C 0,0 C 88 % 93 % 1027,2 hPa 0,0 l/m 0,5 km/h (0 Bft) O-SO 112 0 min 0,3 C 1,8 C 2,4 km/h (1 Bft)
18.12.2020 04:15 2,1 C 6,6 C 1,3 C 2,0 C 1,9 C 0,0 C 88 % 93 % 1027,2 hPa 0,0 l/m 0,8 km/h (0 Bft) S-SW 202 0 min 0,3 C 1,9 C 0,0 km/h (0 Bft)
18.12.2020 04:20 2,2 C 6,6 C 1,1 C 2,1 C 1,9 C 0,0 C 88 % 93 % 1027,2 hPa 0,0 l/m 1,0 km/h (0 Bft) S-SO 157 0 min 0,4 C 1,9 C 0,0 km/h (0 Bft)
18.12.2020 04:25 2,1 C 6,6 C 1,1 C 2,0 C 1,8 C 0,0 C 88 % 93 % 1027,2 hPa 0,0 l/m 0,8 km/h (0 Bft) S 180 0 min 0,3 C 1,8 C 0,0 km/h (0 Bft)
18.12.2020 04:30 2,1 C 6,6 C 1,0 C 2,0 C 1,9 C 0,0 C 88 % 93 % 1027,1 hPa 0,0 l/m 0,8 km/h (0 Bft) SO 135 0 min 0,3 C 1,9 C 0,0 km/h (0 Bft)
18.12.2020 04:35 2,1 C 6,6 C 0,9 C 2,0 C 1,8 C 0,0 C 88 % 93 % 1027,1 hPa 0,0 l/m 0,5 km/h (0 Bft) SW 225 0 min 0,3 C 1,8 C 0,0 km/h (0 Bft)
18.12.2020 04:40 2,1 C 6,6 C 0,9 C 2,0 C 1,7 C 0,0 C 88 % 93 % 1027,1 hPa 0,0 l/m 0,3 km/h (0 Bft) S 180 0 min 0,3 C 1,7 C 4,2 km/h (1 Bft)
18.12.2020 04:45 2,0 C 6,6 C 1,1 C 1,9 C 1,8 C 0,0 C 88 % 93 % 1027,1 hPa 0,0 l/m 0,5 km/h (0 Bft) S-SO 157 0 min 0,2 C 1,8 C 0,0 km/h (0 Bft)
18.12.2020 04:50 2,0 C 6,6 C 1,0 C 1,9 C 1,7 C 0,0 C 88 % 93 % 1027,0 hPa 0,0 l/m 0,6 km/h (0 Bft) S-SO 157 0 min 0,2 C 1,7 C 0,0 km/h (0 Bft)
18.12.2020 04:55 2,1 C 6,6 C 0,8 C 1,9 C 1,6 C 0,0 C 88 % 93 % 1027,0 hPa 0,0 l/m 0,2 km/h (0 Bft) SO 135 0 min 0,3 C 1,6 C 0,0 km/h (0 Bft)
18.12.2020 05:00 2,0 C 6,6 C 0,9 C 1,9 C 1,6 C 0,0 C 88 % 93 % 1027,0 hPa 0,0 l/m 0,6 km/h (0 Bft) S 180 0 min 0,2 C 1,6 C 1,8 km/h (1 Bft)
18.12.2020 05:05 2,0 C 6,5 C 1,0 C 1,9 C 1,7 C 0,0 C 88 % 93 % 1027,0 hPa 0,0 l/m 1,0 km/h (0 Bft) S 180 0 min 0,2 C 1,7 C 2,3 km/h (1 Bft)
18.12.2020 05:10 2,2 C 6,5 C 1,1 C 2,1 C 1,9 C 0,0 C 88 % 93 % 1027,2 hPa 0,0 l/m 0,8 km/h (0 Bft) SO 135 0 min 0,4 C 1,9 C 0,0 km/h (0 Bft)
18.12.2020 05:15 2,2 C 6,5 C 1,3 C 2,1 C 2,0 C 0,0 C 88 % 93 % 1027,2 hPa 0,0 l/m 1,1 km/h (1 Bft) S-SO 157 0 min 0,4 C 2,0 C 2,3 km/h (1 Bft)
18.12.2020 05:20 2,3 C 6,5 C 1,4 C 2,2 C 2,1 C 0,0 C 89 % 93 % 1027,2 hPa 0,0 l/m 1,4 km/h (1 Bft) SO 135 0 min 0,7 C 2,1 C 2,1 km/h (1 Bft)
18.12.2020 05:25 2,4 C 6,5 C 1,1 C 2,3 C 2,2 C 0,0 C 89 % 93 % 1027,2 hPa 0,0 l/m 1,4 km/h (1 Bft) S-SO 157 0 min 0,8 C 2,2 C 1,6 km/h (1 Bft)
18.12.2020 05:30 2,4 C 6,5 C 0,9 C 2,3 C 2,2 C 0,0 C 88 % 93 % 1027,0 hPa 0,0 l/m 1,0 km/h (0 Bft) SO 135 0 min 0,6 C 2,2 C 0,0 km/h (0 Bft)
18.12.2020 05:35 2,4 C 6,5 C 0,7 C 2,3 C 2,0 C 0,0 C 88 % 93 % 1027,0 hPa 0,0 l/m 0,2 km/h (0 Bft) SO 135 0 min 0,6 C 2,0 C 0,0 km/h (0 Bft)
18.12.2020 05:40 2,3 C 6,5 C 0,7 C 2,1 C 1,8 C 0,0 C 88 % 93 % 1027,0 hPa 0,0 l/m 0,0 km/h (0 Bft) SO 135 0 min 0,5 C 1,8 C 0,0 km/h (0 Bft)
18.12.2020 05:45 2,1 C 6,5 C 0,4 C 1,9 C 1,4 C 0,0 C 88 % 93 % 1027,0 hPa 0,0 l/m 0,0 km/h (0 Bft) SO 135 0 min 0,3 C 1,4 C 0,0 km/h (0 Bft)
18.12.2020 05:50 2,0 C 6,5 C 0,3 C 1,8 C 1,4 C 0,0 C 88 % 93 % 1027,8 hPa 0,0 l/m 0,0 km/h (0 Bft) SO 135 0 min 0,2 C 1,4 C 0,0 km/h (0 Bft)
18.12.2020 05:55 2,0 C 6,5 C 0,2 C 1,8 C 1,3 C 0,0 C 88 % 93 % 1027,8 hPa 0,0 l/m 0,0 km/h (0 Bft) SO 135 0 min 0,2 C 1,3 C 0,0 km/h (0 Bft)
18.12.2020 06:00 1,9 C 6,5 C 0,2 C 1,7 C 1,2 C 0,0 C 88 % 93 % 1027,8 hPa 0,0 l/m 0,0 km/h (0 Bft) O-SO 112 0 min 0,1 C 1,2 C 0,0 km/h (0 Bft)
18.12.2020 06:05 1,8 C 6,5 C 0,2 C 1,6 C 1,2 C 0,0 C 88 % 93 % 1027,8 hPa 0,0 l/m 0,0 km/h (0 Bft) O-SO 112 0 min 0,0 C 1,2 C 0,0 km/h (0 Bft)
18.12.2020 06:10 1,8 C 6,5 C 0,0 C 1,6 C 1,1 C 0,0 C 88 % 93 % 1027,6 hPa 0,0 l/m 0,0 km/h (0 Bft) O-SO 112 0 min 0,0 C 1,1 C 0,0 km/h (0 Bft)
18.12.2020 06:15 1,6 C 6,4 C -0,1 C 1,4 C 0,9 C 0,0 C 88 % 93 % 1027,6 hPa 0,0 l/m 0,0 km/h (0 Bft) O-SO 112 0 min -0,2 C 0,9 C 0,0 km/h (0 Bft)
18.12.2020 06:20 1,5 C 6,4 C -0,2 C 1,3 C 0,9 C 0,0 C 88 % 92 % 1027,6 hPa 0,0 l/m 0,0 km/h (0 Bft) O-SO 112 0 min -0,3 C 0,9 C 0,0 km/h (0 Bft)
18.12.2020 06:25 1,5 C 6,4 C -0,1 C 1,3 C 1,0 C 0,0 C 88 % 93 % 1027,6 hPa 0,0 l/m 0,0 km/h (0 Bft) O-SO 112 0 min -0,3 C 1,0 C 0,0 km/h (0 Bft)
18.12.2020 06:30 1,5 C 6,4 C 0,0 C 1,4 C 1,2 C 0,0 C 88 % 93 % 1027,6 hPa 0,0 l/m 0,0 km/h (0 Bft) O-SO 112 0 min -0,3 C 1,2 C 0,0 km/h (0 Bft)
18.12.2020 06:35 1,5 C 6,4 C 0,2 C 1,4 C 1,3 C 0,0 C 88 % 93 % 1027,6 hPa 0,0 l/m 0,0 km/h (0 Bft) SO 135 0 min -0,3 C 1,3 C 0,0 km/h (0 Bft)
18.12.2020 06:40 1,3 C 6,4 C 0,3 C 1,4 C 1,4 C 0,1 C 88 % 93 % 1027,6 hPa 0,0 l/m 0,0 km/h (0 Bft) SO 135 0 min -0,5 C 1,4 C 0,0 km/h (0 Bft)
18.12.2020 06:45 1,3 C 6,4 C 0,3 C 1,4 C 1,4 C 0,1 C 88 % 93 % 1027,6 hPa 0,0 l/m 0,0 km/h (0 Bft) SO 135 0 min -0,5 C 1,4 C 0,0 km/h (0 Bft)
18.12.2020 06:50 1,2 C 6,4 C 0,5 C 1,5 C 1,5 C 0,3 C 88 % 93 % 1027,9 hPa 0,0 l/m 0,0 km/h (0 Bft) SO 135 0 min -0,6 C 1,5 C 0,0 km/h (0 Bft)
18.12.2020 06:55 1,2 C 6,4 C 0,6 C 1,8 C 1,8 C 0,6 C 88 % 93 % 1027,9 hPa 0,0 l/m 0,0 km/h (0 Bft) SO 135 0 min -0,6 C 1,8 C 0,0 km/h (0 Bft)
18.12.2020 07:00 1,2 C 6,4 C 0,6 C 1,9 C 1,9 C 0,7 C 88 % 93 % 1027,9 hPa 0,0 l/m 0,0 km/h (0 Bft) SW 225 0 min -0,6 C 1,9 C 0,0 km/h (0 Bft)
18.12.2020 07:05 1,1 C 6,4 C 0,5 C 1,7 C 1,7 C 0,6 C 88 % 93 % 1027,9 hPa 0,0 l/m 0,0 km/h (0 Bft) SO 135 0 min -0,7 C 1,7 C 0,0 km/h (0 Bft)
18.12.2020 07:10 1,0 C 6,4 C 0,5 C 1,5 C 1,5 C 0,5 C 88 % 93 % 1027,6 hPa 0,0 l/m 0,0 km/h (0 Bft) SO 135 0 min -0,8 C 1,5 C 0,0 km/h (0 Bft)
18.12.2020 07:15 1,1 C 6,4 C 0,6 C 1,7 C 1,7 C 0,6 C 88 % 93 % 1027,6 hPa 0,0 l/m 0,0 km/h (0 Bft) S-SO 157 0 min -0,7 C 1,7 C 0,0 km/h (0 Bft)
18.12.2020 07:20 1,1 C 6,4 C 0,6 C 1,6 C 1,6 C 0,5 C 88 % 93 % 1027,6 hPa 0,0 l/m 0,0 km/h (0 Bft) SO 135 0 min -0,7 C 1,6 C 0,0 km/h (0 Bft)
18.12.2020 07:25 1,1 C 6,4 C 0,6 C 1,5 C 1,5 C 0,4 C 88 % 93 % 1027,6 hPa 0,0 l/m 0,0 km/h (0 Bft) O-NO 67 0 min -0,7 C 1,5 C 0,0 km/h (0 Bft)
18.12.2020 07:30 0,9 C 6,4 C 0,5 C 1,4 C 1,4 C 0,5 C 88 % 93 % 1027,6 hPa 0,0 l/m 0,0 km/h (0 Bft) N-NW 337 0 min -0,9 C 1,4 C 0,0 km/h (0 Bft)
18.12.2020 07:35 0,9 C 6,4 C 0,4 C 1,2 C 1,2 C 0,3 C 88 % 93 % 1027,6 hPa 0,0 l/m 0,0 km/h (0 Bft) N 360 0 min -0,9 C 1,2 C 0,0 km/h (0 Bft)
18.12.2020 07:40 0,9 C 6,3 C 0,3 C 1,2 C 1,2 C 0,3 C 88 % 93 % 1027,6 hPa 0,0 l/m 0,0 km/h (0 Bft) O-NO 67 0 min -0,9 C 1,2 C 0,0 km/h (0 Bft)
18.12.2020 07:45 1,0 C 6,3 C 0,3 C 1,2 C 1,2 C 0,2 C 88 % 93 % 1027,6 hPa 0,0 l/m 0,0 km/h (0 Bft) O-NO 67 0 min -0,8 C 1,2 C 0,0 km/h (0 Bft)
18.12.2020 07:50 1,0 C 6,3 C 0,4 C 1,3 C 1,3 C 0,3 C 88 % 93 % 1028,1 hPa 0,0 l/m 0,0 km/h (0 Bft) O-NO 67 0 min -0,8 C 1,3 C 0,0 km/h (0 Bft)
18.12.2020 07:55 1,1 C 6,3 C 0,5 C 1,4 C 1,4 C 0,3 C 88 % 93 % 1028,1 hPa 0,0 l/m 0,0 km/h (0 Bft) O-NO 67 0 min -0,7 C 1,4 C 0,0 km/h (0 Bft)
18.12.2020 08:00 1,1 C 6,3 C 0,7 C 1,5 C 1,5 C 0,4 C 88 % 93 % 1028,1 hPa 0,0 l/m 0,0 km/h (0 Bft) O 90 0 min -0,7 C 1,5 C 0,0 km/h (0 Bft)
18.12.2020 08:05 1,1 C 6,3 C 0,7 C 1,7 C 1,7 C 0,6 C 88 % 93 % 1028,1 hPa 0,0 l/m 0,2 km/h (0 Bft) W-SW 247 0 min -0,7 C 1,7 C 0,0 km/h (0 Bft)
18.12.2020 08:10 1,2 C 6,3 C 0,8 C 1,7 C 1,7 C 0,5 C 88 % 93 % 1028,1 hPa 0,0 l/m 0,2 km/h (0 Bft) O-SO 112 0 min -0,6 C 1,7 C 2,1 km/h (1 Bft)
18.12.2020 08:15 1,3 C 6,3 C 1,0 C 1,9 C 1,9 C 0,6 C 88 % 93 % 1028,1 hPa 0,0 l/m 0,3 km/h (0 Bft) S-SO 157 0 min -0,5 C 1,9 C 0,0 km/h (0 Bft)
18.12.2020 08:20 1,2 C 6,3 C 0,9 C 1,8 C 1,8 C 0,6 C 88 % 93 % 1028,1 hPa 0,0 l/m 0,3 km/h (0 Bft) SO 135 0 min -0,6 C 1,8 C 0,0 km/h (0 Bft)
18.12.2020 08:25 1,3 C 6,3 C 1,1 C 1,9 C 1,9 C 0,6 C 88 % 93 % 1028,1 hPa 0,0 l/m 0,3 km/h (0 Bft) NO 45 5 min -0,5 C 1,9 C 0,0 km/h (0 Bft)
18.12.2020 08:30 1,4 C 6,3 C 1,0 C 1,9 C 1,9 C 0,5 C 88 % 93 % 1028,1 hPa 0,0 l/m 0,3 km/h (0 Bft) O-SO 112 5 min -0,4 C 1,9 C 0,0 km/h (0 Bft)
18.12.2020 08:35 1,5 C 6,3 C 1,1 C 2,0 C 2,0 C 0,5 C 88 % 93 % 1028,1 hPa 0,0 l/m 0,0 km/h (0 Bft) O-NO 67 5 min -0,3 C 2,0 C 0,0 km/h (0 Bft)
18.12.2020 08:40 1,4 C 6,3 C 1,4 C 2,2 C 2,2 C 0,8 C 88 % 93 % 1028,1 hPa 0,0 l/m 0,0 km/h (0 Bft) W 270 5 min -0,4 C 2,2 C 0,0 km/h (0 Bft)
18.12.2020 08:45 1,5 C 6,3 C 1,5 C 2,5 C 2,5 C 1,0 C 88 % 93 % 1028,1 hPa 0,0 l/m 0,2 km/h (0 Bft) W-SW 247 5 min -0,3 C 2,5 C 0,0 km/h (0 Bft)
18.12.2020 08:50 1,5 C 6,3 C 1,6 C 2,5 C 2,5 C 1,0 C 88 % 93 % 1027,9 hPa 0,0 l/m 0,3 km/h (0 Bft) S-SO 157 5 min -0,3 C 2,5 C 1,6 km/h (1 Bft)
18.12.2020 08:55 1,6 C 6,3 C 1,9 C 2,7 C 2,7 C 1,1 C 88 % 93 % 1027,9 hPa 0,0 l/m 0,3 km/h (0 Bft) S 180 5 min -0,2 C 2,7 C 1,8 km/h (1 Bft)
18.12.2020 09:00 1,6 C 6,3 C 1,9 C 2,8 C 2,8 C 1,2 C 88 % 93 % 1027,9 hPa 0,0 l/m 0,2 km/h (0 Bft) O-NO 67 5 min -0,2 C 2,8 C 0,0 km/h (0 Bft)
18.12.2020 09:05 1,6 C 6,3 C 1,9 C 2,8 C 2,8 C 1,2 C 88 % 93 % 1027,9 hPa 0,0 l/m 0,2 km/h (0 Bft) W 270 5 min -0,2 C 2,8 C 0,0 km/h (0 Bft)
18.12.2020 09:10 1,6 C 6,3 C 1,9 C 2,9 C 2,9 C 1,3 C 88 % 93 % 1027,8 hPa 0,0 l/m 0,0 km/h (0 Bft) S-SO 157 5 min -0,2 C 2,9 C 0,0 km/h (0 Bft)
18.12.2020 09:15 1,6 C 6,3 C 2,2 C 3,1 C 3,1 C 1,5 C 88 % 93 % 1027,8 hPa 0,0 l/m 0,0 km/h (0 Bft) S-SO 157 0 min -0,2 C 3,1 C 0,0 km/h (0 Bft)
18.12.2020 09:20 1,7 C 6,3 C 2,4 C 3,3 C 3,3 C 1,6 C 88 % 93 % 1027,8 hPa 0,0 l/m 0,3 km/h (0 Bft) S-SO 157 0 min -0,1 C 3,3 C 0,0 km/h (0 Bft)
18.12.2020 09:25 1,9 C 6,3 C 2,5 C 3,6 C 3,6 C 1,7 C 88 % 93 % 1027,8 hPa 0,0 l/m 0,6 km/h (0 Bft) W 270 0 min 0,1 C 3,6 C 5,3 km/h (1 Bft)
18.12.2020 09:30 1,8 C 6,3 C 2,5 C 3,5 C 3,5 C 1,7 C 88 % 93 % 1027,6 hPa 0,0 l/m 0,8 km/h (0 Bft) NW 315 0 min 0,0 C 3,5 C 0,0 km/h (0 Bft)
18.12.2020 09:35 1,9 C 6,3 C 2,6 C 3,6 C 3,6 C 1,7 C 88 % 93 % 1027,6 hPa 0,0 l/m 0,8 km/h (0 Bft) NW 315 0 min 0,1 C 3,6 C 0,0 km/h (0 Bft)
18.12.2020 09:40 1,9 C 6,3 C 2,7 C 3,7 C 3,7 C 1,8 C 88 % 93 % 1027,6 hPa 0,0 l/m 0,2 km/h (0 Bft) W 270 0 min 0,1 C 3,7 C 0,0 km/h (0 Bft)
18.12.2020 09:45 2,0 C 6,3 C 2,8 C 3,9 C 3,9 C 1,9 C 88 % 93 % 1027,6 hPa 0,0 l/m 0,2 km/h (0 Bft) W-SW 247 0 min 0,2 C 3,9 C 0,0 km/h (0 Bft)
18.12.2020 09:50 2,0 C 6,3 C 2,9 C 4,1 C 4,1 C 2,1 C 88 % 93 % 1027,9 hPa 0,0 l/m 0,0 km/h (0 Bft) W-SW 247 0 min 0,2 C 4,1 C 0,0 km/h (0 Bft)
18.12.2020 09:55 2,2 C 6,3 C 3,3 C 4,6 C 4,6 C 2,4 C 89 % 93 % 1027,9 hPa 0,0 l/m 0,0 km/h (0 Bft) W-SW 247 0 min 0,6 C 4,6 C 0,0 km/h (0 Bft)
18.12.2020 10:00 2,3 C 6,3 C 3,4 C 4,7 C 4,7 C 2,4 C 89 % 93 % 1027,9 hPa 0,0 l/m 0,0 km/h (0 Bft) W-NW 292 0 min 0,7 C 4,7 C 0,0 km/h (0 Bft)
18.12.2020 10:05 2,4 C 6,2 C 3,5 C 5,1 C 5,1 C 2,7 C 89 % 93 % 1027,9 hPa 0,0 l/m 0,0 km/h (0 Bft) W-SW 247 0 min 0,8 C 5,1 C 0,0 km/h (0 Bft)
18.12.2020 10:10 2,4 C 6,2 C 3,7 C 5,3 C 5,3 C 2,9 C 89 % 93 % 1027,4 hPa 0,0 l/m 0,2 km/h (0 Bft) W-SW 247 0 min 0,8 C 5,3 C 0,0 km/h (0 Bft)
18.12.2020 10:15 2,6 C 6,2 C 3,7 C 5,4 C 5,4 C 2,8 C 89 % 93 % 1027,4 hPa 0,0 l/m 0,3 km/h (0 Bft) W-SW 247 0 min 1,0 C 5,4 C 0,0 km/h (0 Bft)
18.12.2020 10:20 2,7 C 6,2 C 3,5 C 5,5 C 5,5 C 2,8 C 89 % 93 % 1027,4 hPa 0,0 l/m 0,2 km/h (0 Bft) W-SW 247 0 min 1,1 C 5,5 C 0,0 km/h (0 Bft)
18.12.2020 10:25 2,7 C 6,1 C 3,7 C 5,8 C 5,8 C 3,1 C 89 % 93 % 1027,4 hPa 0,0 l/m 0,0 km/h (0 Bft) W-SW 247 0 min 1,1 C 5,8 C 0,0 km/h (0 Bft)
18.12.2020 10:30 2,8 C 6,1 C 3,8 C 6,0 C 6,0 C 3,2 C 89 % 93 % 1027,5 hPa 0,0 l/m 0,0 km/h (0 Bft) W-SW 247 0 min 1,2 C 6,0 C 0,0 km/h (0 Bft)
18.12.2020 10:35 3,1 C 6,2 C 3,9 C 6,0 C 6,0 C 2,9 C 89 % 93 % 1027,5 hPa 0,0 l/m 0,5 km/h (0 Bft) W 270 0 min 1,5 C 6,0 C 0,0 km/h (0 Bft)
18.12.2020 10:40 3,1 C 6,2 C 3,7 C 6,1 C 6,1 C 3,0 C 88 % 93 % 1027,5 hPa 0,0 l/m 0,5 km/h (0 Bft) SW 225 0 min 1,3 C 6,1 C 0,0 km/h (0 Bft)
18.12.2020 10:45 3,1 C 6,1 C 3,7 C 6,8 C 6,8 C 3,7 C 88 % 93 % 1027,5 hPa 0,0 l/m 0,2 km/h (0 Bft) SW 225 5 min 1,3 C 6,8 C 1,9 km/h (1 Bft)
18.12.2020 10:50 3,2 C 6,1 C 3,7 C 6,6 C 6,6 C 3,4 C 88 % 93 % 1027,4 hPa 0,0 l/m 0,2 km/h (0 Bft) W-SW 247 5 min 1,4 C 6,6 C 0,0 km/h (0 Bft)
18.12.2020 10:55 3,4 C 6,1 C 3,7 C 6,2 C 6,2 C 2,8 C 88 % 93 % 1027,4 hPa 0,0 l/m 0,3 km/h (0 Bft) SW 225 0 min 1,6 C 6,2 C 1,6 km/h (1 Bft)
18.12.2020 11:00 3,5 C 6,1 C 3,8 C 6,2 C 6,2 C 2,7 C 88 % 93 % 1027,4 hPa 0,0 l/m 0,2 km/h (0 Bft) S-SO 157 0 min 1,7 C 6,2 C 3,1 km/h (1 Bft)
18.12.2020 11:05 3,6 C 6,0 C 4,0 C 6,2 C 6,2 C 2,6 C 88 % 93 % 1027,4 hPa 0,0 l/m 0,3 km/h (0 Bft) SO 135 0 min 1,8 C 6,2 C 2,9 km/h (1 Bft)
18.12.2020 11:10 4,0 C 6,0 C 4,4 C 7,3 C 7,3 C 3,3 C 88 % 93 % 1027,7 hPa 0,0 l/m 1,3 km/h (1 Bft) S 180 5 min 2,2 C 7,3 C 6,8 km/h (2 Bft)
18.12.2020 11:15 4,7 C 6,0 C 4,9 C 8,9 C 8,9 C 4,2 C 88 % 93 % 1027,7 hPa 0,0 l/m 2,7 km/h (1 Bft) SO 135 5 min 2,9 C 8,9 C 2,4 km/h (1 Bft)
18.12.2020 11:20 5,1 C 6,0 C 5,0 C 10,0 C 10,0 C 4,9 C 89 % 93 % 1027,7 hPa 0,0 l/m 2,6 km/h (1 Bft) S 180 5 min 3,4 C 10,0 C 3,4 km/h (1 Bft)
18.12.2020 11:25 5,6 C 5,9 C 5,4 C 11,1 C 11,1 C 5,5 C 88 % 93 % 1027,7 hPa 0,0 l/m 1,9 km/h (1 Bft) SO 135 5 min 3,8 C 11,1 C 2,4 km/h (1 Bft)
18.12.2020 11:30 6,0 C 5,9 C 5,6 C 11,4 C 11,4 C 5,4 C 88 % 92 % 1027,5 hPa 0,0 l/m 2,7 km/h (1 Bft) O-SO 112 5 min 4,2 C 11,4 C 4,8 km/h (1 Bft)
18.12.2020 11:35 6,7 C 5,9 C 5,9 C 11,3 C 11,3 C 4,6 C 88 % 92 % 1027,5 hPa 0,0 l/m 2,9 km/h (1 Bft) S 180 5 min 4,9 C 11,3 C 4,0 km/h (1 Bft)
18.12.2020 11:40 6,9 C 5,9 C 6,1 C 10,4 C 10,4 C 3,5 C 88 % 92 % 1027,5 hPa 0,0 l/m 2,7 km/h (1 Bft) SO 135 5 min 5,1 C 10,4 C 5,3 km/h (1 Bft)
18.12.2020 11:45 7,5 C 5,9 C 6,3 C 11,2 C 11,2 C 3,7 C 87 % 91 % 1027,5 hPa 0,0 l/m 3,7 km/h (1 Bft) S 180 5 min 5,5 C 11,2 C 5,3 km/h (1 Bft)
18.12.2020 11:50 7,8 C 5,9 C 6,4 C 11,3 C 11,3 C 3,5 C 86 % 90 % 1027,3 hPa 0,0 l/m 4,5 km/h (1 Bft) SW 225 5 min 5,6 C 11,3 C 3,4 km/h (1 Bft)
18.12.2020 11:55 8,0 C 5,9 C 6,7 C 10,9 C 10,9 C 2,9 C 84 % 90 % 1027,3 hPa 0,0 l/m 4,3 km/h (1 Bft) SO 135 0 min 5,5 C 10,9 C 10,0 km/h (2 Bft)
18.12.2020 12:00 8,0 C 5,9 C 6,7 C 10,7 C 10,7 C 2,7 C 83 % 90 % 1027,3 hPa 0,0 l/m 3,7 km/h (1 Bft) O-SO 112 0 min 5,3 C 10,7 C 2,3 km/h (1 Bft)
18.12.2020 12:05 8,2 C 5,9 C 6,8 C 10,9 C 10,9 C 2,7 C 82 % 89 % 1027,3 hPa 0,0 l/m 3,9 km/h (1 Bft) S-SW 202 0 min 5,3 C 10,9 C 8,2 km/h (2 Bft)
18.12.2020 12:10 8,4 C 5,9 C 7,0 C 10,8 C 10,8 C 2,4 C 81 % 88 % 1026,6 hPa 0,0 l/m 4,0 km/h (1 Bft) S-SO 157 0 min 5,3 C 10,8 C 7,2 km/h (2 Bft)
18.12.2020 12:15 8,6 C 5,9 C 7,1 C 10,7 C 10,7 C 2,1 C 79 % 87 % 1026,6 hPa 0,0 l/m 5,1 km/h (1 Bft) SO 135 0 min 5,2 C 10,7 C 11,6 km/h (2 Bft)
18.12.2020 12:20 8,6 C 5,9 C 7,3 C 10,8 C 10,8 C 2,2 C 77 % 85 % 1026,6 hPa 0,0 l/m 5,0 km/h (1 Bft) S 180 0 min 4,8 C 10,8 C 6,3 km/h (2 Bft)
18.12.2020 12:25 8,9 C 5,9 C 7,4 C 10,4 C 10,4 C 1,5 C 76 % 84 % 1026,6 hPa 0,0 l/m 5,1 km/h (1 Bft) S 180 0 min 4,9 C 10,4 C 12,7 km/h (3 Bft)
18.12.2020 12:30 8,8 C 5,9 C 7,5 C 10,6 C 10,6 C 1,8 C 75 % 84 % 1026,6 hPa 0,0 l/m 5,0 km/h (1 Bft) S-SO 157 0 min 4,6 C 10,6 C 7,1 km/h (2 Bft)
18.12.2020 12:35 9,1 C 5,9 C 7,5 C 10,5 C 10,5 C 1,4 C 75 % 84 % 1026,6 hPa 0,0 l/m 4,2 km/h (1 Bft) S 180 0 min 4,9 C 10,5 C 5,8 km/h (2 Bft)
18.12.2020 12:40 9,1 C 5,9 C 7,6 C 10,3 C 10,3 C 1,2 C 74 % 83 % 1026,6 hPa 0,0 l/m 4,7 km/h (1 Bft) S-SO 157 0 min 4,7 C 10,3 C 4,8 km/h (1 Bft)
18.12.2020 12:45 9,3 C 5,9 C 7,7 C 10,5 C 10,5 C 1,2 C 73 % 83 % 1026,6 hPa 0,0 l/m 4,3 km/h (1 Bft) S-SW 202 0 min 4,7 C 10,5 C 7,9 km/h (2 Bft)
18.12.2020 12:50 9,3 C 5,9 C 7,8 C 10,3 C 10,3 C 1,0 C 72 % 82 % 1026,8 hPa 0,0 l/m 4,7 km/h (1 Bft) S 180 0 min 4,5 C 10,3 C 5,5 km/h (1 Bft)
18.12.2020 12:55 9,5 C 6,0 C 7,8 C 10,8 C 10,8 C 1,3 C 71 % 81 % 1026,8 hPa 0,0 l/m 5,0 km/h (1 Bft) S 180 0 min 4,5 C 10,8 C 3,4 km/h (1 Bft)
18.12.2020 13:00 9,5 C 6,0 C 7,9 C 11,5 C 11,5 C 2,0 C 71 % 81 % 1026,8 hPa 0,0 l/m 3,2 km/h (1 Bft) O-SO 112 0 min 4,5 C 11,5 C 0,0 km/h (0 Bft)
18.12.2020 13:05 9,5 C 6,0 C 7,9 C 11,7 C 11,7 C 2,2 C 71 % 81 % 1026,8 hPa 0,0 l/m 1,8 km/h (1 Bft) O 90 0 min 4,5 C 11,7 C 5,3 km/h (1 Bft)
18.12.2020 13:10 9,6 C 6,0 C 8,0 C 11,6 C 11,6 C 2,0 C 71 % 80 % 1026,5 hPa 0,0 l/m 1,4 km/h (1 Bft) S-SO 157 0 min 4,6 C 11,6 C 3,5 km/h (1 Bft)
18.12.2020 13:15 9,9 C 6,0 C 8,1 C 11,7 C 11,7 C 1,8 C 71 % 80 % 1026,5 hPa 0,0 l/m 1,4 km/h (1 Bft) S-SO 157 0 min 4,9 C 11,7 C 0,0 km/h (0 Bft)
18.12.2020 13:20 9,9 C 5,9 C 8,3 C 11,6 C 11,6 C 1,7 C 70 % 79 % 1026,5 hPa 0,0 l/m 2,1 km/h (1 Bft) O-SO 112 0 min 4,7 C 11,6 C 7,1 km/h (2 Bft)
18.12.2020 13:25 10,1 C 6,0 C 8,3 C 11,8 C 11,8 C 1,7 C 69 % 79 % 1026,5 hPa 0,0 l/m 3,1 km/h (1 Bft) SW 225 0 min 4,7 C 11,8 C 4,5 km/h (1 Bft)
18.12.2020 13:30 10,1 C 6,0 C 8,4 C 11,7 C 11,7 C 1,6 C 69 % 77 % 1026,3 hPa 0,0 l/m 2,6 km/h (1 Bft) S-SO 157 0 min 4,7 C 11,7 C 4,2 km/h (1 Bft)
18.12.2020 13:35 10,3 C 6,0 C 8,6 C 12,0 C 12,0 C 1,7 C 69 % 77 % 1026,3 hPa 0,0 l/m 2,7 km/h (1 Bft) SO 135 0 min 4,9 C 12,0 C 7,1 km/h (2 Bft)
18.12.2020 13:40 10,4 C 6,0 C 8,6 C 11,9 C 11,9 C 1,5 C 68 % 77 % 1026,3 hPa 0,0 l/m 3,2 km/h (1 Bft) S 180 0 min 4,8 C 11,9 C 4,8 km/h (1 Bft)
18.12.2020 13:45 10,5 C 6,0 C 8,7 C 11,9 C 11,9 C 1,4 C 67 % 77 % 1026,3 hPa 0,0 l/m 3,4 km/h (1 Bft) SO 135 0 min 4,6 C 11,9 C 5,1 km/h (1 Bft)
18.12.2020 13:50 10,4 C 6,0 C 8,7 C 12,1 C 12,1 C 1,7 C 67 % 76 % 1026,3 hPa 0,0 l/m 2,6 km/h (1 Bft) O 90 0 min 4,5 C 12,1 C 2,9 km/h (1 Bft)
18.12.2020 13:55 10,3 C 6,0 C 8,7 C 12,5 C 12,5 C 2,2 C 67 % 75 % 1026,3 hPa 0,0 l/m 2,3 km/h (1 Bft) SW 225 0 min 4,4 C 12,5 C 2,6 km/h (1 Bft)
18.12.2020 14:00 10,4 C 6,0 C 8,8 C 12,7 C 12,7 C 2,3 C 67 % 75 % 1026,3 hPa 0,0 l/m 3,1 km/h (1 Bft) S-SO 157 0 min 4,5 C 12,7 C 6,3 km/h (2 Bft)
18.12.2020 14:05 10,5 C 6,2 C 8,8 C 12,5 C 12,5 C 2,0 C 67 % 75 % 1026,3 hPa 0,0 l/m 2,7 km/h (1 Bft) S 180 0 min 4,6 C 12,5 C 2,6 km/h (1 Bft)
18.12.2020 14:10 10,5 C 6,2 C 8,7 C 12,4 C 12,4 C 1,9 C 67 % 75 % 1026,2 hPa 0,0 l/m 1,8 km/h (1 Bft) O 90 0 min 4,6 C 12,4 C 1,6 km/h (1 Bft)
18.12.2020 14:15 10,4 C 6,2 C 8,7 C 12,8 C 12,8 C 2,4 C 67 % 75 % 1026,2 hPa 0,0 l/m 1,3 km/h (1 Bft) NW 315 0 min 4,5 C 12,8 C 2,1 km/h (1 Bft)
18.12.2020 14:20 10,5 C 6,1 C 8,8 C 12,5 C 12,5 C 2,0 C 67 % 75 % 1026,2 hPa 0,0 l/m 1,8 km/h (1 Bft) NW 315 0 min 4,6 C 12,5 C 6,9 km/h (2 Bft)
18.12.2020 14:25 10,4 C 6,1 C 8,6 C 12,5 C 12,5 C 2,1 C 67 % 75 % 1026,2 hPa 0,0 l/m 2,1 km/h (1 Bft) S 180 0 min 4,5 C 12,5 C 5,0 km/h (1 Bft)
18.12.2020 14:30 10,4 C 6,2 C 8,6 C 12,2 C 12,2 C 1,8 C 67 % 75 % 1026,2 hPa 0,0 l/m 1,9 km/h (1 Bft) S 180 0 min 4,5 C 12,2 C 0,0 km/h (0 Bft)
18.12.2020 14:35 10,2 C 6,2 C 8,5 C 12,1 C 12,1 C 1,9 C 67 % 75 % 1026,2 hPa 0,0 l/m 2,1 km/h (1 Bft) S-SW 202 0 min 4,4 C 12,1 C 3,9 km/h (1 Bft)
18.12.2020 14:40 10,3 C 6,2 C 8,4 C 12,1 C 12,1 C 1,8 C 67 % 76 % 1026,2 hPa 0,0 l/m 2,4 km/h (1 Bft) W-SW 247 0 min 4,4 C 12,1 C 2,6 km/h (1 Bft)
18.12.2020 14:45 10,0 C 6,2 C 8,4 C 12,0 C 12,0 C 2,0 C 68 % 76 % 1026,2 hPa 0,0 l/m 2,3 km/h (1 Bft) S-SO 157 0 min 4,4 C 12,0 C 3,4 km/h (1 Bft)
18.12.2020 14:50 10,0 C 6,2 C 8,3 C 12,0 C 12,0 C 2,0 C 68 % 76 % 1026,1 hPa 0,0 l/m 1,1 km/h (1 Bft) SW 225 0 min 4,4 C 12,0 C 0,0 km/h (0 Bft)
18.12.2020 14:55 9,8 C 6,3 C 8,3 C 11,5 C 11,5 C 1,7 C 69 % 76 % 1026,1 hPa 0,0 l/m 0,8 km/h (0 Bft) S 180 0 min 4,4 C 11,5 C 3,5 km/h (1 Bft)
18.12.2020 15:00 9,9 C 6,2 C 8,2 C 10,9 C 10,9 C 1,0 C 69 % 76 % 1026,1 hPa 0,0 l/m 1,3 km/h (1 Bft) S-SW 202 0 min 4,5 C 10,9 C 4,0 km/h (1 Bft)
18.12.2020 15:05 9,8 C 6,3 C 7,9 C 10,2 C 10,2 C 0,4 C 69 % 76 % 1026,1 hPa 0,0 l/m 1,8 km/h (1 Bft) SW 225 0 min 4,4 C 10,2 C 2,9 km/h (1 Bft)
18.12.2020 15:10 9,7 C 6,3 C 7,8 C 9,8 C 9,8 C 0,1 C 69 % 77 % 1026,2 hPa 0,0 l/m 2,1 km/h (1 Bft) SW 225 0 min 4,3 C 9,8 C 1,9 km/h (1 Bft)
18.12.2020 15:15 9,6 C 6,3 C 7,6 C 9,5 C 9,4 C 0,0 C 70 % 78 % 1026,2 hPa 0,0 l/m 2,4 km/h (1 Bft) SW 225 0 min 4,4 C 9,4 C 3,1 km/h (1 Bft)
18.12.2020 15:20 9,6 C 6,3 C 7,5 C 9,5 C 9,2 C 0,0 C 70 % 78 % 1026,2 hPa 0,0 l/m 2,3 km/h (1 Bft) W-SW 247 0 min 4,4 C 9,2 C 0,0 km/h (0 Bft)
18.12.2020 15:25 9,4 C 6,3 C 7,1 C 9,3 C 9,0 C 0,0 C 71 % 79 % 1026,2 hPa 0,0 l/m 1,4 km/h (1 Bft) S 180 0 min 4,4 C 9,0 C 0,0 km/h (0 Bft)
18.12.2020 16:23 9,4 C 6,3 C 7,1 C 9,3 C 9,0 C 0,0 C 71 % 79 % 1026,2 hPa 0,0 l/m 1,4 km/h (1 Bft) S 180 0 min 4,4 C 9,0 C 0,0 km/h (0 Bft)
18.12.2020 16:28 9,5 C 6,3 C 7,0 C 9,2 C 8,7 C 0,0 C 71 % 79 % 1026,1 hPa 0,0 l/m 1,0 km/h (0 Bft) SW 225 0 min 4,5 C 8,7 C 2,9 km/h (1 Bft)
18.12.2020 16:33 9,2 C 6,4 C 6,8 C 8,9 C 8,4 C 0,0 C 71 % 80 % 1026,1 hPa 0,0 l/m 0,6 km/h (0 Bft) S 180 0 min 4,2 C 8,4 C 0,0 km/h (0 Bft)
18.12.2020 16:38 9,1 C 6,4 C 6,6 C 8,8 C 8,2 C 0,0 C 71 % 80 % 1026,1 hPa 0,0 l/m 0,3 km/h (0 Bft) S 180 0 min 4,1 C 8,2 C 0,0 km/h (0 Bft)
18.12.2020 16:43 8,8 C 6,5 C 6,3 C 8,4 C 7,7 C 0,0 C 71 % 80 % 1026,1 hPa 0,0 l/m 0,0 km/h (0 Bft) S 180 0 min 3,8 C 7,7 C 0,0 km/h (0 Bft)
18.12.2020 16:48 8,6 C 6,5 C 6,0 C 8,2 C 7,5 C 0,0 C 71 % 81 % 1026,4 hPa 0,0 l/m 0,0 km/h (0 Bft) W-SW 247 0 min 3,6 C 7,5 C 0,0 km/h (0 Bft)
18.12.2020 16:53 8,3 C 6,5 C 5,6 C 7,9 C 7,0 C 0,0 C 71 % 81 % 1026,4 hPa 0,0 l/m 0,0 km/h (0 Bft) W-SW 247 0 min 3,4 C 7,0 C 0,0 km/h (0 Bft)
18.12.2020 16:58 8,1 C 6,5 C 5,4 C 7,6 C 6,7 C 0,0 C 72 % 81 % 1026,4 hPa 0,0 l/m 0,0 km/h (0 Bft) W-SW 247 0 min 3,4 C 6,7 C 0,0 km/h (0 Bft)
18.12.2020 17:03 7,7 C 6,5 C 4,9 C 7,3 C 6,4 C 0,0 C 73 % 82 % 1026,4 hPa 0,0 l/m 0,0 km/h (0 Bft) W-SW 247 0 min 3,2 C 6,4 C 0,0 km/h (0 Bft)
18.12.2020 17:08 7,6 C 6,5 C 4,7 C 7,2 C 6,3 C 0,0 C 73 % 82 % 1025,8 hPa 0,0 l/m 0,0 km/h (0 Bft) W-SW 247 0 min 3,1 C 6,3 C 0,0 km/h (0 Bft)
18.12.2020 17:13 7,3 C 6,6 C 4,3 C 6,9 C 6,0 C 0,0 C 74 % 83 % 1025,8 hPa 0,0 l/m 0,0 km/h (0 Bft) W-SW 247 0 min 3,0 C 6,0 C 0,0 km/h (0 Bft)
18.12.2020 17:18 6,9 C 6,6 C 4,1 C 6,5 C 5,7 C 0,0 C 74 % 83 % 1025,8 hPa 0,0 l/m 0,0 km/h (0 Bft) W-SW 247 0 min 2,6 C 5,7 C 0,0 km/h (0 Bft)
18.12.2020 17:23 6,5 C 6,6 C 3,8 C 6,0 C 5,0 C 0,0 C 74 % 84 % 1025,8 hPa 0,0 l/m 0,0 km/h (0 Bft) W-SW 247 0 min 2,2 C 5,0 C 0,0 km/h (0 Bft)
18.12.2020 17:28 6,3 C 6,6 C 3,6 C 5,8 C 4,7 C 0,0 C 75 % 84 % 1026,2 hPa 0,0 l/m 0,0 km/h (0 Bft) W-SW 247 0 min 2,2 C 4,7 C 0,0 km/h (0 Bft)
18.12.2020 17:33 5,9 C 6,6 C 3,2 C 5,4 C 4,4 C 0,0 C 75 % 85 % 1026,2 hPa 0,0 l/m 0,0 km/h (0 Bft) W-SW 247 0 min 1,8 C 4,4 C 0,0 km/h (0 Bft)
18.12.2020 17:38 5,7 C 6,6 C 3,1 C 5,2 C 4,1 C 0,0 C 75 % 85 % 1026,2 hPa 0,0 l/m 0,0 km/h (0 Bft) W-SW 247 0 min 1,6 C 4,1 C 0,0 km/h (0 Bft)
18.12.2020 17:43 5,4 C 6,6 C 2,9 C 4,8 C 3,6 C 0,0 C 76 % 86 % 1026,2 hPa 0,0 l/m 0,0 km/h (0 Bft) W-SW 247 0 min 1,5 C 3,6 C 0,0 km/h (0 Bft)
18.12.2020 17:48 5,2 C 6,7 C 2,7 C 4,6 C 3,4 C 0,0 C 76 % 86 % 1025,7 hPa 0,0 l/m 0,0 km/h (0 Bft) W-SW 247 0 min 1,3 C 3,4 C 0,0 km/h (0 Bft)
18.12.2020 17:53 5,1 C 6,7 C 2,6 C 4,4 C 3,1 C 0,0 C 77 % 87 % 1025,7 hPa 0,0 l/m 0,0 km/h (0 Bft) W-SW 247 0 min 1,4 C 3,1 C 0,0 km/h (0 Bft)
18.12.2020 17:58 4,8 C 6,8 C 2,4 C 4,2 C 3,0 C 0,0 C 77 % 86 % 1025,7 hPa 0,0 l/m 0,0 km/h (0 Bft) W-SW 247 0 min 1,1 C 3,0 C 0,0 km/h (0 Bft)
18.12.2020 18:03 4,6 C 6,8 C 2,2 C 3,9 C 2,6 C 0,0 C 77 % 87 % 1025,7 hPa 0,0 l/m 0,0 km/h (0 Bft) W-SW 247 0 min 0,9 C 2,6 C 0,0 km/h (0 Bft)
18.12.2020 18:08 4,4 C 6,8 C 2,0 C 3,7 C 2,4 C 0,0 C 77 % 87 % 1026,1 hPa 0,0 l/m 0,0 km/h (0 Bft) W-SW 247 0 min 0,7 C 2,4 C 0,0 km/h (0 Bft)
18.12.2020 18:13 4,1 C 6,8 C 1,8 C 3,4 C 2,1 C 0,0 C 78 % 87 % 1026,1 hPa 0,0 l/m 0,0 km/h (0 Bft) W-SW 247 0 min 0,6 C 2,1 C 0,0 km/h (0 Bft)
18.12.2020 18:18 3,9 C 6,8 C 1,7 C 3,3 C 2,0 C 0,0 C 78 % 88 % 1026,1 hPa 0,0 l/m 0,0 km/h (0 Bft) W-SW 247 0 min 0,4 C 2,0 C 0,0 km/h (0 Bft)
18.12.2020 18:23 3,6 C 6,8 C 1,5 C 3,1 C 2,0 C 0,0 C 79 % 88 % 1026,1 hPa 0,0 l/m 0,0 km/h (0 Bft) W-SW 247 0 min 0,3 C 2,0 C 0,0 km/h (0 Bft)
18.12.2020 18:28 3,6 C 6,8 C 1,5 C 3,1 C 2,0 C 0,0 C 79 % 88 % 1026,2 hPa 0,0 l/m 0,0 km/h (0 Bft) W-SW 247 0 min 0,3 C 2,0 C 0,0 km/h (0 Bft)
18.12.2020 18:33 3,4 C 6,8 C 1,5 C 2,8 C 1,7 C 0,0 C 79 % 89 % 1026,2 hPa 0,0 l/m 0,0 km/h (0 Bft) W-SW 247 0 min 0,1 C 1,7 C 0,0 km/h (0 Bft)
18.12.2020 18:38 3,2 C 6,8 C 1,2 C 2,6 C 1,5 C 0,0 C 80 % 89 % 1026,2 hPa 0,0 l/m 0,0 km/h (0 Bft) W-SW 247 0 min 0,1 C 1,5 C 0,0 km/h (0 Bft)
18.12.2020 18:43 3,0 C 6,8 C 1,2 C 2,5 C 1,4 C 0,0 C 80 % 89 % 1026,2 hPa 0,0 l/m 0,0 km/h (0 Bft) W-SW 247 0 min -0,1 C 1,4 C 0,0 km/h (0 Bft)
18.12.2020 18:48 2,9 C 6,8 C 1,1 C 2,4 C 1,3 C 0,0 C 81 % 89 % 1026,2 hPa 0,0 l/m 0,0 km/h (0 Bft) W-SW 247 0 min -0,0 C 1,3 C 0,0 km/h (0 Bft)
18.12.2020 18:53 2,9 C 6,8 C 1,0 C 2,4 C 1,3 C 0,0 C 82 % 90 % 1026,2 hPa 0,0 l/m 0,3 km/h (0 Bft) W-SW 247 0 min 0,1 C 1,3 C 0,0 km/h (0 Bft)
18.12.2020 18:58 2,7 C 6,9 C 0,9 C 2,2 C 1,2 C 0,0 C 81 % 90 % 1026,2 hPa 0,0 l/m 0,3 km/h (0 Bft) W-SW 247 0 min -0,2 C 1,2 C 0,0 km/h (0 Bft)
18.12.2020 19:03 2,6 C 6,9 C 0,9 C 2,1 C 1,1 C 0,0 C 82 % 90 % 1026,2 hPa 0,0 l/m 0,0 km/h (0 Bft) W-SW 247 0 min -0,2 C 1,1 C 0,0 km/h (0 Bft)
18.12.2020 19:08 2,5 C 6,9 C 0,8 C 2,0 C 0,9 C 0,0 C 82 % 90 % 1026,2 hPa 0,0 l/m 0,0 km/h (0 Bft) W-SW 247 0 min -0,3 C 0,9 C 0,0 km/h (0 Bft)
18.12.2020 19:13 2,3 C 6,9 C 0,5 C 1,8 C 0,8 C 0,0 C 83 % 90 % 1026,2 hPa 0,0 l/m 0,0 km/h (0 Bft) W-SW 247 0 min -0,3 C 0,8 C 0,0 km/h (0 Bft)
18.12.2020 19:18 2,1 C 6,9 C 0,4 C 1,6 C 0,7 C 0,0 C 82 % 90 % 1026,2 hPa 0,0 l/m 0,0 km/h (0 Bft) W-SW 247 0 min -0,6 C 0,7 C 0,0 km/h (0 Bft)
18.12.2020 19:23 1,9 C 6,9 C 0,3 C 1,4 C 0,4 C 0,0 C 83 % 90 % 1026,2 hPa 0,0 l/m 0,0 km/h (0 Bft) W-SW 247 0 min -0,7 C 0,4 C 0,0 km/h (0 Bft)
18.12.2020 19:28 1,9 C 6,9 C 0,3 C 1,4 C 0,3 C 0,0 C 83 % 90 % 1026,1 hPa 0,0 l/m 0,0 km/h (0 Bft) W-SW 247 0 min -0,7 C 0,3 C 0,0 km/h (0 Bft)
18.12.2020 19:33 1,6 C 6,9 C 0,3 C 1,1 C 0,1 C 0,0 C 83 % 90 % 1026,1 hPa 0,0 l/m 0,0 km/h (0 Bft) W-SW 247 0 min -1,0 C 0,1 C 0,0 km/h (0 Bft)
18.12.2020 19:38 1,6 C 6,9 C 0,2 C 1,0 C -0,1 C 0,0 C 83 % 90 % 1026,1 hPa 0,0 l/m 0,0 km/h (0 Bft) W-SW 247 0 min -1,0 C -0,1 C 0,0 km/h (0 Bft)
18.12.2020 19:43 1,5 C 6,9 C 0,1 C 1,0 C -0,1 C 0,0 C 83 % 91 % 1026,1 hPa 0,0 l/m 0,0 km/h (0 Bft) W-SW 247 0 min -1,1 C -0,1 C 0,0 km/h (0 Bft)
18.12.2020 19:48 1,4 C 6,9 C -0,1 C 0,8 C -0,3 C 0,0 C 83 % 91 % 1026,0 hPa 0,0 l/m 0,0 km/h (0 Bft) W-SW 247 0 min -1,2 C -0,3 C 0,0 km/h (0 Bft)
18.12.2020 19:53 1,2 C 6,8 C -0,2 C 0,6 C -0,5 C 0,0 C 84 % 91 % 1026,0 hPa 0,0 l/m 0,0 km/h (0 Bft) W-SW 247 0 min -1,2 C -0,5 C 0,0 km/h (0 Bft)
18.12.2020 19:58 1,1 C 6,8 C -0,3 C 0,6 C -0,5 C 0,0 C 84 % 91 % 1026,0 hPa 0,0 l/m 0,0 km/h (0 Bft) W-SW 247 0 min -1,3 C -0,5 C 0,0 km/h (0 Bft)
18.12.2020 20:03 0,9 C 6,8 C -0,5 C 0,4 C -0,6 C 0,0 C 84 % 90 % 1026,0 hPa 0,0 l/m 0,0 km/h (0 Bft) W-SW 247 0 min -1,5 C -0,6 C 0,0 km/h (0 Bft)
18.12.2020 20:08 0,9 C 6,8 C -0,5 C 0,4 C -0,6 C 0,0 C 84 % 91 % 1026,0 hPa 0,0 l/m 0,0 km/h (0 Bft) W-SW 247 0 min -1,5 C -0,6 C 0,0 km/h (0 Bft)
18.12.2020 20:13 0,8 C 6,8 C -0,5 C 0,3 C -0,7 C 0,0 C 84 % 91 % 1026,0 hPa 0,0 l/m 0,0 km/h (0 Bft) W-SW 247 0 min -1,6 C -0,7 C 0,0 km/h (0 Bft)
18.12.2020 20:18 0,7 C 6,8 C -0,6 C 0,2 C -0,9 C 0,0 C 85 % 91 % 1026,0 hPa 0,0 l/m 0,0 km/h (0 Bft) W-SW 247 0 min -1,5 C -0,9 C 0,0 km/h (0 Bft)
18.12.2020 20:23 0,5 C 6,8 C -0,6 C 0,0 C -1,1 C 0,0 C 85 % 91 % 1026,0 hPa 0,0 l/m 0,0 km/h (0 Bft) W-SW 247 0 min -1,7 C -1,1 C 0,0 km/h (0 Bft)
18.12.2020 20:28 0,4 C 6,8 C -0,7 C -0,1 C -1,2 C 0,0 C 85 % 91 % 1025,7 hPa 0,0 l/m 0,0 km/h (0 Bft) W-SW 247 0 min -1,8 C -1,2 C 0,0 km/h (0 Bft)
18.12.2020 20:33 0,4 C 6,8 C -0,9 C -0,1 C -1,2 C 0,0 C 85 % 91 % 1025,7 hPa 0,0 l/m 0,0 km/h (0 Bft) W-SW 247 0 min -1,8 C -1,2 C 0,0 km/h (0 Bft)
18.12.2020 20:38 0,4 C 6,8 C -0,9 C -0,1 C -1,1 C 0,0 C 85 % 91 % 1025,7 hPa 0,0 l/m 0,0 km/h (0 Bft) W-SW 247 0 min -1,8 C -1,1 C 0,0 km/h (0 Bft)
18.12.2020 20:43 0,3 C 6,8 C -1,0 C -0,2 C -1,1 C 0,0 C 85 % 91 % 1025,7 hPa 0,0 l/m 0,0 km/h (0 Bft) W-SW 247 0 min -1,9 C -1,1 C 0,0 km/h (0 Bft)
18.12.2020 20:48 0,3 C 6,8 C -1,0 C -0,2 C -1,1 C 0,0 C 85 % 91 % 1026,3 hPa 0,0 l/m 0,0 km/h (0 Bft) W-SW 247 0 min -1,9 C -1,1 C 0,0 km/h (0 Bft)
18.12.2020 20:53 0,0 C 6,7 C -1,0 C -0,4 C -1,2 C 0,0 C 85 % 91 % 1026,3 hPa 0,0 l/m 0,0 km/h (0 Bft) W-SW 247 0 min -2,2 C -1,2 C 0,0 km/h (0 Bft)
18.12.2020 20:58 0,0 C 6,7 C -1,0 C -0,4 C -1,3 C 0,0 C 85 % 92 % 1026,3 hPa 0,0 l/m 0,0 km/h (0 Bft) W-SW 247 0 min -2,2 C -1,3 C 0,0 km/h (0 Bft)
18.12.2020 21:03 0,0 C 6,7 C -0,9 C -0,4 C -1,2 C 0,0 C 86 % 92 % 1026,3 hPa 0,0 l/m 0,0 km/h (0 Bft) W-SW 247 0 min -2,1 C -1,2 C 0,0 km/h (0 Bft)
18.12.2020 21:08 0,1 C 6,7 C -1,0 C -0,3 C -1,1 C 0,0 C 86 % 92 % 1025,9 hPa 0,0 l/m 0,0 km/h (0 Bft) W-SW 247 0 min -2,0 C -1,1 C 0,0 km/h (0 Bft)
18.12.2020 21:13 -0,1 C 6,7 C -1,1 C -0,5 C -1,3 C 0,0 C 86 % 92 % 1025,9 hPa 0,0 l/m 0,0 km/h (0 Bft) W-SW 247 0 min -2,2 C -1,3 C 0,0 km/h (0 Bft)
18.12.2020 21:18 -0,1 C 6,7 C -1,3 C -0,5 C -1,4 C 0,0 C 86 % 92 % 1025,9 hPa 0,0 l/m 0,0 km/h (0 Bft) W-SW 247 0 min -2,2 C -1,4 C 0,0 km/h (0 Bft)
18.12.2020 21:23 -0,1 C 6,7 C -1,3 C -0,6 C -1,5 C 0,0 C 86 % 92 % 1025,9 hPa 0,0 l/m 0,0 km/h (0 Bft) W-SW 247 0 min -2,2 C -1,5 C 0,0 km/h (0 Bft)
18.12.2020 21:28 -0,2 C 6,7 C -1,3 C -0,6 C -1,4 C 0,0 C 86 % 92 % 1026,1 hPa 0,0 l/m 0,0 km/h (0 Bft) W-SW 247 0 min -2,3 C -1,4 C 0,0 km/h (0 Bft)
18.12.2020 21:33 -0,1 C 6,7 C -1,4 C -0,5 C -1,2 C 0,0 C 87 % 92 % 1026,1 hPa 0,0 l/m 0,0 km/h (0 Bft) W-SW 247 0 min -2,0 C -1,2 C 0,0 km/h (0 Bft)
18.12.2020 21:38 -0,3 C 6,7 C -1,4 C -0,7 C -1,4 C 0,0 C 86 % 92 % 1026,1 hPa 0,0 l/m 0,0 km/h (0 Bft) W-SW 247 0 min -2,3 C -1,4 C 0,0 km/h (0 Bft)
18.12.2020 21:43 -0,3 C 6,6 C -1,4 C -0,8 C -1,7 C 0,0 C 86 % 92 % 1026,1 hPa 0,0 l/m 0,0 km/h (0 Bft) W-SW 247 0 min -2,3 C -1,7 C 0,0 km/h (0 Bft)
18.12.2020 21:48 -0,5 C 6,6 C -1,4 C -0,9 C -1,8 C 0,0 C 86 % 92 % 1025,9 hPa 0,0 l/m 0,0 km/h (0 Bft) W-SW 247 0 min -2,5 C -1,8 C 0,0 km/h (0 Bft)
18.12.2020 21:53 -0,5 C 6,6 C -1,6 C -1,0 C -1,9 C 0,0 C 86 % 91 % 1025,9 hPa 0,0 l/m 0,0 km/h (0 Bft) W-SW 247 0 min -2,5 C -1,9 C 0,0 km/h (0 Bft)
18.12.2020 21:58 -0,5 C 6,6 C -1,7 C -1,0 C -1,9 C 0,0 C 86 % 91 % 1025,9 hPa 0,0 l/m 0,0 km/h (0 Bft) W-SW 247 0 min -2,5 C -1,9 C 0,0 km/h (0 Bft)
18.12.2020 22:03 -0,7 C 6,6 C -1,6 C -1,1 C -2,0 C 0,0 C 86 % 92 % 1025,9 hPa 0,0 l/m 0,0 km/h (0 Bft) W-SW 247 0 min -2,7 C -2,0 C 0,0 km/h (0 Bft)
18.12.2020 22:08 -0,7 C 6,6 C -1,6 C -1,1 C -2,0 C 0,0 C 86 % 92 % 1026,1 hPa 0,0 l/m 0,0 km/h (0 Bft) W-SW 247 0 min -2,7 C -2,0 C 0,0 km/h (0 Bft)
18.12.2020 22:13 -0,8 C 6,6 C -1,7 C -1,2 C -2,1 C 0,0 C 86 % 92 % 1026,1 hPa 0,0 l/m 0,0 km/h (0 Bft) W-SW 247 0 min -2,8 C -2,1 C 0,0 km/h (0 Bft)
18.12.2020 22:18 -0,7 C 6,6 C -1,8 C -1,2 C -2,2 C 0,0 C 87 % 92 % 1026,1 hPa 0,0 l/m 0,0 km/h (0 Bft) W-SW 247 0 min -2,6 C -2,2 C 0,0 km/h (0 Bft)
18.12.2020 22:23 -0,9 C 6,6 C -1,9 C -1,3 C -2,1 C 0,0 C 87 % 92 % 1026,1 hPa 0,0 l/m 0,0 km/h (0 Bft) W-SW 247 0 min -2,8 C -2,1 C 0,0 km/h (0 Bft)
18.12.2020 22:28 -0,9 C 6,5 C -1,9 C -1,3 C -2,1 C 0,0 C 87 % 92 % 1025,9 hPa 0,0 l/m 0,0 km/h (0 Bft) W-SW 247 0 min -2,8 C -2,1 C 0,0 km/h (0 Bft)
18.12.2020 22:33 -0,9 C 6,5 C -1,9 C -1,3 C -2,2 C 0,0 C 87 % 92 % 1025,9 hPa 0,0 l/m 0,0 km/h (0 Bft) W-SW 247 0 min -2,8 C -2,2 C 0,0 km/h (0 Bft)
18.12.2020 22:38 -1,1 C 6,5 C -1,9 C -1,5 C -2,3 C 0,0 C 87 % 92 % 1025,9 hPa 0,0 l/m 0,0 km/h (0 Bft) W-SW 247 0 min -3,0 C -2,3 C 0,0 km/h (0 Bft)
18.12.2020 22:43 -1,1 C 6,5 C -2,0 C -1,6 C -2,5 C 0,0 C 87 % 92 % 1025,9 hPa 0,0 l/m 0,0 km/h (0 Bft) W-SW 247 0 min -3,0 C -2,5 C 0,0 km/h (0 Bft)
18.12.2020 22:48 -1,2 C 6,5 C -2,0 C -1,6 C -2,4 C 0,0 C 87 % 92 % 1025,9 hPa 0,0 l/m 0,0 km/h (0 Bft) W-SW 247 0 min -3,1 C -2,4 C 0,0 km/h (0 Bft)
18.12.2020 22:53 -1,3 C 6,5 C -2,0 C -1,7 C -2,4 C 0,0 C 87 % 92 % 1025,9 hPa 0,0 l/m 0,0 km/h (0 Bft) W-SW 247 0 min -3,2 C -2,4 C 0,0 km/h (0 Bft)
18.12.2020 22:58 -1,3 C 6,5 C -2,0 C -1,7 C -2,4 C 0,0 C 87 % 92 % 1025,9 hPa 0,0 l/m 0,0 km/h (0 Bft) W-SW 247 0 min -3,2 C -2,4 C 0,0 km/h (0 Bft)
18.12.2020 23:03 -1,3 C 6,5 C -2,1 C -1,6 C -2,3 C 0,0 C 87 % 92 % 1025,9 hPa 0,0 l/m 0,0 km/h (0 Bft) W-SW 247 0 min -3,2 C -2,3 C 0,0 km/h (0 Bft)
18.12.2020 23:08 -1,3 C 6,5 C -2,1 C -1,6 C -2,2 C 0,0 C 87 % 92 % 1025,5 hPa 0,0 l/m 0,0 km/h (0 Bft) W-SW 247 0 min -3,2 C -2,2 C 0,0 km/h (0 Bft)
18.12.2020 23:13 -1,3 C 6,5 C -2,1 C -1,6 C -2,1 C 0,0 C 87 % 92 % 1025,5 hPa 0,0 l/m 0,0 km/h (0 Bft) W-SW 247 0 min -3,2 C -2,1 C 0,0 km/h (0 Bft)
18.12.2020 23:18 -1,3 C 6,4 C -2,1 C -1,6 C -2,1 C 0,0 C 87 % 92 % 1025,5 hPa 0,0 l/m 0,0 km/h (0 Bft) W-SW 247 0 min -3,2 C -2,1 C 0,0 km/h (0 Bft)
18.12.2020 22:19 -1,3 C 6,4 C -2,1 C -1,6 C -2,1 C 0,0 C 87 % 92 % 1025,5 hPa 0,0 l/m 0,0 km/h (0 Bft) W-SW 247 0 min -3,2 C -2,1 C 0,0 km/h (0 Bft)
18.12.2020 22:20 -1,3 C 6,4 C -2,1 C -1,6 C -2,1 C 0,0 C 87 % 92 % 1025,5 hPa 0,0 l/m 0,0 km/h (0 Bft) W-SW 247 0 min -3,2 C -2,1 C 0,0 km/h (0 Bft)
18.12.2020 22:25 -1,2 C 6,4 C -1,9 C -1,5 C -2,0 C 0,0 C 88 % 92 % 1025,5 hPa 0,0 l/m 0,0 km/h (0 Bft) W-SW 247 0 min -2,9 C -2,0 C 0,0 km/h (0 Bft)
18.12.2020 22:30 -1,2 C 6,4 C -1,8 C -1,5 C -2,0 C 0,0 C 88 % 92 % 1025,4 hPa 0,0 l/m 0,0 km/h (0 Bft) W-SW 247 0 min -2,9 C -2,0 C 0,0 km/h (0 Bft)
18.12.2020 22:35 -1,1 C 6,4 C -1,9 C -1,4 C -2,0 C 0,0 C 88 % 92 % 1025,4 hPa 0,0 l/m 0,0 km/h (0 Bft) W-SW 247 0 min -2,8 C -2,0 C 0,0 km/h (0 Bft)
18.12.2020 22:40 -1,2 C 6,4 C -1,8 C -1,5 C -2,0 C 0,0 C 88 % 92 % 1025,4 hPa 0,0 l/m 0,0 km/h (0 Bft) W-SW 247 0 min -2,9 C -2,0 C 0,0 km/h (0 Bft)
18.12.2020 22:45 -1,2 C 6,4 C -1,7 C -1,4 C -1,9 C 0,0 C 88 % 92 % 1025,4 hPa 0,0 l/m 0,0 km/h (0 Bft) W-SW 247 0 min -2,9 C -1,9 C 0,0 km/h (0 Bft)
18.12.2020 22:50 -1,2 C 6,4 C -1,8 C -1,4 C -1,8 C 0,0 C 88 % 93 % 1025,4 hPa 0,0 l/m 0,0 km/h (0 Bft) W-SW 247 0 min -2,9 C -1,8 C 0,0 km/h (0 Bft)
18.12.2020 22:55 -1,1 C 6,4 C -1,8 C -1,2 C -1,5 C 0,0 C 88 % 92 % 1025,4 hPa 0,0 l/m 0,0 km/h (0 Bft) W-SW 247 0 min -2,8 C -1,5 C 0,0 km/h (0 Bft)
18.12.2020 23:00 -1,1 C 6,4 C -1,7 C -1,2 C -1,4 C 0,0 C 88 % 92 % 1025,4 hPa 0,0 l/m 0,0 km/h (0 Bft) W-SW 247 0 min -2,8 C -1,4 C 0,0 km/h (0 Bft)
18.12.2020 23:05 -1,1 C 6,4 C -1,8 C -1,2 C -1,3 C 0,0 C 88 % 92 % 1025,4 hPa 0,0 l/m 0,0 km/h (0 Bft) W-SW 247 0 min -2,8 C -1,3 C 0,0 km/h (0 Bft)
18.12.2020 23:10 -1,1 C 6,2 C -1,8 C -1,2 C -1,4 C 0,0 C 88 % 92 % 1025,2 hPa 0,0 l/m 0,0 km/h (0 Bft) W-SW 247 0 min -2,8 C -1,4 C 0,0 km/h (0 Bft)
18.12.2020 23:15 -1,1 C 6,2 C -1,8 C -1,2 C -1,5 C 0,0 C 88 % 92 % 1025,2 hPa 0,0 l/m 0,0 km/h (0 Bft) W-SW 247 0 min -2,8 C -1,5 C 0,0 km/h (0 Bft)
18.12.2020 23:20 -1,1 C 6,2 C -1,9 C -1,3 C -1,6 C 0,0 C 88 % 92 % 1025,2 hPa 0,0 l/m 0,0 km/h (0 Bft) W-SW 247 0 min -2,8 C -1,6 C 0,0 km/h (0 Bft)
18.12.2020 23:25 -1,2 C 6,2 C -2,0 C -1,3 C -1,5 C 0,0 C 88 % 92 % 1025,2 hPa 0,0 l/m 0,0 km/h (0 Bft) W-SW 247 0 min -2,9 C -1,5 C 0,0 km/h (0 Bft)
18.12.2020 23:30 -1,2 C 6,2 C -2,1 C -1,3 C -1,5 C 0,0 C 88 % 93 % 1025,2 hPa 0,0 l/m 0,0 km/h (0 Bft) W-SW 247 0 min -2,9 C -1,5 C 0,0 km/h (0 Bft)
18.12.2020 23:35 -1,3 C 6,2 C -2,1 C -1,4 C -1,6 C 0,0 C 88 % 93 % 1025,2 hPa 0,0 l/m 0,0 km/h (0 Bft) W-SW 247 0 min -3,0 C -1,6 C 0,0 km/h (0 Bft)
18.12.2020 23:40 -1,3 C 6,2 C -2,1 C -1,4 C -1,7 C 0,0 C 88 % 93 % 1025,2 hPa 0,0 l/m 0,0 km/h (0 Bft) W-SW 247 0 min -3,0 C -1,7 C 0,0 km/h (0 Bft)
18.12.2020 23:45 -1,3 C 6,2 C -2,1 C -1,5 C -1,9 C 0,0 C 88 % 93 % 1025,2 hPa 0,0 l/m 0,0 km/h (0 Bft) W-SW 247 0 min -3,0 C -1,9 C 0,0 km/h (0 Bft)
18.12.2020 23:50 -1,3 C 6,2 C -2,1 C -1,6 C -2,1 C 0,0 C 88 % 93 % 1025,3 hPa 0,0 l/m 0,0 km/h (0 Bft) W-SW 247 0 min -3,0 C -2,1 C 0,0 km/h (0 Bft)
18.12.2020 23:55 -1,3 C 6,2 C -2,1 C -1,5 C -2,0 C 0,0 C 88 % 93 % 1025,3 hPa 0,0 l/m 0,0 km/h (0 Bft) W-SW 247 0 min -3,0 C -2,0 C 0,0 km/h (0 Bft)
_ Min-Zeit 22:53 11:25 23:03 22:53 22:43 00:00 13:45 13:55 23:10 - 00:35 - - - 22:53 22:43 00:00
Minimum _ -1,3 C 5,9 C -2,1 C -1,7 C -2,5 C 0,0 C 67 % 75 % 1025,2 hPa - 0,0 km/h (0 Bft) - - - -3,2 C -2,5 C 0,0 km/h (0 Bft)
_ Max-Zeit 13:45 18:58 14:00 14:15 14:15 11:25 05:20 02:15 07:50 00:00 12:15 - - 08:25 11:50 14:15 12:25
Maximum _ 10,5 C 6,9 C 8,8 C 12,8 C 12,8 C 5,5 C 89 % 93 % 1028,1 hPa 0,0 l/m 5,1 km/h
SO (1 Bft)
- - 5 min 5,6 C 12,8 C 12,7 km/h
S (3 Bft)
Durchschnitt _ 3,1 C 6,4 C 1,9 C 3,5 C 3,1 C 0,6 C 83 % 89 % 1026,6 hPa #0,0 l/m 0,6 km/h (0 Bft) S - #1:45 h 0,5 C 3,1 C 0,9 km/h (0 Bft)
2020 www.wetterstation-wechselburg.de